Date String (YYYY-MM-DD hh:mm:ss) UTC,Instrument flags,absolute air pressure of the measurement (hPa),sample flow rate (lpm),inlet stack bypass flow (lpm),air temperature of the measurement (°C),ambient temperature measured by the external sensor (°C),aerosol sample conditioner tube jacket temperature (°C),OPC LED temperature (°C),internal box temperature (°C),relative humidity of the measurement (%),span deviation,mass concentration of particles derived from Lorenz-Mie calculation of OPC scattering (μg/m³),mass concentration of particles derived from Lorenz-Mie calculation of OPC scattering (μg/m³),mass concentration of particles derived from Lorenz-Mie calculation of OPC scattering (μg/m³)
DateTimeUTC,F1_M11,P_M11,Q1_M11,Q2_M11,T1_M11,T2_M11,T3_M11,T4_M11,T5_M11,U1_M11,ZSPAN_M11,X0_M11,X2_M11,X1_M11
2023-08-12 08:00:00,SystemResetWarning,0831.5,5.00,000.00,029.3,025.5,000.0,037.8,030.6,20.5,0000.0,0006.38,0003.27,0002.83
2023-08-12 08:01:00,SystemResetWarning,0831.5,4.99,000.00,029.3,025.8,000.0,037.8,030.6,20.6,0000.0,0006.54,0003.28,0002.82
2023-08-12 08:02:00,SystemResetWarning,0831.5,5.00,000.00,029.2,026.2,000.0,037.8,030.7,20.6,0000.0,0006.86,0003.31,0002.81
2023-08-12 08:03:00,SystemResetWarning,0831.5,5.01,000.00,029.2,026.6,000.0,037.8,030.8,20.4,0000.0,0007.24,0003.33,0002.79
2023-08-12 08:04:00,SystemResetWarning,0831.5,5.00,000.00,029.2,026.9,000.0,037.8,030.8,20.3,0000.0,0007.27,0003.33,0002.79
2023-08-12 08:05:00,SystemResetWarning,0831.5,4.99,000.00,029.3,027.2,000.0,037.8,030.9,20.3,0000.0,0007.25,0003.35,0002.79
2023-08-12 08:06:00,SystemResetWarning,0831.5,4.99,000.00,029.3,027.4,000.0,037.9,030.9,20.3,0000.0,0007.35,0003.38,0002.79
2023-08-12 08:07:00,SystemResetWarning,0831.6,4.99,000.00,029.3,027.6,000.0,037.9,030.9,20.3,0000.0,0007.31,0003.37,0002.80
2023-08-12 08:08:00,SystemResetWarning,0831.6,5.00,000.00,029.3,027.8,000.0,037.9,031.0,20.4,0000.0,0007.09,0003.35,0002.80
2023-08-12 08:09:00,SystemResetWarning,0831.6,5.00,000.00,029.3,027.9,000.0,037.9,031.0,20.3,0000.0,0007.06,0003.37,0002.80
2023-08-12 08:10:00,SystemResetWarning,0831.6,5.00,000.00,029.4,028.0,000.0,037.9,031.1,20.3,0000.0,0006.71,0003.37,0002.80
2023-08-12 08:11:00,SystemResetWarning,0831.6,5.00,000.00,029.4,028.1,000.0,037.9,031.1,21.0,0000.0,0007.16,0003.37,0002.78
2023-08-12 08:12:00,SystemResetWarning,0831.5,5.01,000.00,029.4,028.2,000.0,037.9,031.1,22.9,0000.0,0007.14,0003.37,0002.76
2023-08-12 08:13:00,SystemResetWarning,0831.5,5.00,000.00,029.5,028.3,000.0,038.0,031.2,21.8,0000.0,0007.11,0003.39,0002.75
2023-08-12 08:14:00,SystemResetWarning,0831.6,5.00,000.00,029.5,028.3,000.0,038.0,031.2,20.1,0000.0,0006.81,0003.35,0002.77
2023-08-12 08:15:00,SystemResetWarning,0831.6,5.00,000.00,029.5,028.4,000.0,038.0,031.3,20.5,0000.0,0006.33,0003.31,0002.77
2023-08-12 08:16:00,SystemResetWarning,0831.6,4.99,000.00,029.6,028.5,000.0,038.0,031.3,20.8,0000.0,0006.94,0003.30,0002.76
2023-08-12 08:17:00,SystemResetWarning,0831.5,4.98,000.00,029.6,027.8,000.0,038.0,031.2,21.0,0000.0,0006.98,0003.28,0002.76
2023-08-12 08:18:00,SystemResetWarning,0831.5,5.00,000.00,029.5,025.9,000.0,037.9,030.9,21.4,0000.0,0007.26,0003.29,0002.76
2023-08-12 08:19:00,SystemResetWarning,0831.5,5.01,000.00,029.5,025.4,000.0,037.8,030.7,21.7,0000.0,0007.27,0003.30,0002.77
2023-08-12 08:20:00,SystemResetWarning,0831.5,5.01,000.00,029.4,025.6,000.0,037.8,030.6,22.2,0000.0,0007.62,0003.34,0002.79
2023-08-12 08:21:00,SystemResetWarning,0831.5,4.99,000.00,029.3,025.9,000.0,037.8,030.6,22.4,0000.0,0007.58,0003.35,0002.80
2023-08-12 08:22:00,SystemResetWarning,0831.5,5.00,000.00,029.3,026.3,000.0,037.8,030.7,23.2,0000.0,0007.59,0003.39,0002.82
2023-08-12 08:23:00,SystemResetWarning,0831.6,5.00,000.00,029.3,026.7,000.0,037.8,030.8,23.6,0000.0,0007.97,0003.41,0002.85
2023-08-12 08:24:00,SystemResetWarning,0831.6,5.00,000.00,029.3,027.0,000.0,037.9,030.8,23.3,0000.0,0008.65,0003.42,0002.85
2023-08-12 08:25:00,SystemResetWarning,0831.6,5.00,000.00,029.3,027.3,000.0,037.9,030.9,23.4,0000.0,0008.83,0003.44,0002.85
2023-08-12 08:26:00,SystemResetWarning,0831.6,5.00,000.00,029.3,027.5,000.0,037.9,030.9,23.0,0000.0,0008.93,0003.47,0002.86
2023-08-12 08:27:00,SystemResetWarning,0831.6,4.99,000.00,029.3,027.7,000.0,037.9,031.0,22.7,0000.0,0008.67,0003.50,0002.87
2023-08-12 08:28:00,SystemResetWarning,0831.6,4.99,000.00,029.4,027.9,000.0,037.9,031.0,22.1,0000.0,0008.63,0003.51,0002.87
2023-08-12 08:29:00,SystemResetWarning,0831.6,5.01,000.00,029.4,028.0,000.0,037.9,031.1,22.1,0000.0,0008.63,0003.56,0002.87
2023-08-12 08:30:00,SystemResetWarning,0831.6,5.00,000.00,029.4,028.1,000.0,037.9,031.1,22.1,0000.0,0008.60,0003.56,0002.86
2023-08-12 08:31:00,SystemResetWarning,0831.6,5.01,000.00,029.4,028.2,000.0,037.9,031.2,21.8,0000.0,0008.55,0003.54,0002.85
2023-08-12 08:32:00,SystemResetWarning,0831.6,4.99,000.00,029.5,028.3,000.0,038.0,031.2,21.8,0000.0,0008.58,0003.51,0002.84
2023-08-12 08:33:00,SystemResetWarning,0831.6,4.99,000.00,029.5,028.4,000.0,038.0,031.2,21.5,0000.0,0008.24,0003.48,0002.83
2023-08-12 08:34:00,SystemResetWarning,0831.6,5.00,000.00,029.5,028.4,000.0,038.0,031.3,21.4,0000.0,0007.84,0003.45,0002.82
2023-08-12 08:35:00,SystemResetWarning,0831.6,5.01,000.00,029.6,028.5,000.0,038.0,031.3,21.4,0000.0,0006.88,0003.40,0002.82
2023-08-12 08:36:00,SystemResetWarning,0831.5,4.99,000.00,029.6,027.2,000.0,037.9,031.0,21.2,0000.0,0006.51,0003.38,0002.82
2023-08-12 08:37:00,SystemResetWarning,0831.5,5.01,000.00,029.5,025.6,000.0,037.8,030.8,21.4,0000.0,0006.49,0003.38,0002.82
2023-08-12 08:38:00,SystemResetWarning,0831.5,5.01,000.00,029.4,025.5,000.0,037.7,030.6,21.6,0000.0,0006.46,0003.37,0002.82
2023-08-12 08:39:00,SystemResetWarning,0831.6,5.00,000.00,029.3,025.7,000.0,037.8,030.5,22.0,0000.0,0006.36,0003.35,0002.82
2023-08-12 08:40:00,SystemResetWarning,0831.6,5.00,000.00,029.2,026.1,000.0,037.8,030.6,22.3,0000.0,0006.56,0003.32,0002.83
2023-08-12 08:41:00,SystemResetWarning,0831.6,5.00,000.00,029.2,026.5,000.0,037.8,030.7,22.4,0000.0,0006.59,0003.31,0002.83
2023-08-12 08:42:00,SystemResetWarning,0831.6,4.99,000.00,029.2,026.8,000.0,037.8,030.8,22.4,0000.0,0006.49,0003.30,0002.83
2023-08-12 08:43:00,SystemResetWarning,0831.6,5.00,000.00,029.3,027.1,000.0,037.8,030.8,22.5,0000.0,0005.54,0003.30,0002.83
2023-08-12 08:44:00,SystemResetWarning,0831.6,5.00,000.00,029.3,027.3,000.0,037.8,030.9,22.3,0000.0,0005.36,0003.28,0002.83
2023-08-12 08:45:00,SystemResetWarning,0831.6,5.00,000.00,029.3,027.6,000.0,037.9,030.9,22.1,0000.0,0005.31,0003.29,0002.84
2023-08-12 08:46:00,SystemResetWarning,0831.6,5.00,000.00,029.3,027.7,000.0,037.9,031.0,21.8,0000.0,0005.38,0003.32,0002.85
2023-08-12 08:47:00,SystemResetWarning,0831.6,5.00,000.00,029.3,027.9,000.0,037.9,031.0,21.8,0000.0,0005.40,0003.34,0002.88
2023-08-12 08:48:00,SystemResetWarning,0831.6,5.01,000.00,029.4,028.0,000.0,037.9,031.0,21.7,0000.0,0005.47,0003.35,0002.91
2023-08-12 08:49:00,SystemResetWarning,0831.6,5.00,000.00,029.4,028.1,000.0,037.9,031.1,21.5,0000.0,0005.56,0003.38,0002.95
2023-08-12 08:50:00,SystemResetWarning,0831.6,5.00,000.00,029.4,028.2,000.0,037.9,031.1,21.4,0000.0,0005.66,0003.42,0002.99
2023-08-12 08:51:00,SystemResetWarning,0831.6,5.00,000.00,029.5,028.2,000.0,038.0,031.2,21.2,0000.0,0005.35,0003.46,0003.01
2023-08-12 08:52:00,SystemResetWarning,0831.6,5.00,000.00,029.5,028.3,000.0,038.0,031.2,21.1,0000.0,0005.25,0003.47,0003.05
2023-08-12 08:53:00,SystemResetWarning,0831.6,5.00,000.00,029.5,028.4,000.0,038.0,031.2,21.1,0000.0,0005.32,0003.50,0003.09
2023-08-12 08:54:00,SystemResetWarning,0831.6,5.00,000.00,029.5,028.4,000.0,038.0,031.3,21.2,0000.0,0005.70,0003.54,0003.12
2023-08-12 08:55:00,SystemResetWarning,0831.6,5.00,000.00,029.6,028.5,000.0,038.1,031.3,21.1,0000.0,0006.99,0003.60,0003.15
2023-08-12 08:56:00,SystemResetWarning,0831.6,5.01,000.00,029.6,028.5,000.0,038.1,031.3,21.0,0000.0,0007.52,0003.66,0003.17
2023-08-12 08:57:00,SystemResetWarning,0831.6,4.99,000.00,029.6,027.8,000.0,038.0,031.3,20.7,0000.0,0007.90,0003.68,0003.18
2023-08-12 08:58:00,SystemResetWarning,0831.5,5.00,000.00,029.6,025.9,000.0,037.9,030.9,20.5,0000.0,0008.03,0003.73,0003.19
2023-08-12 08:59:00,SystemResetWarning,0831.5,5.01,000.00,029.5,025.4,000.0,037.8,030.7,20.6,0000.0,0008.02,0003.74,0003.20
